When you browse on this site, cookies collect data to enhance your experience and personalize the content and advertising you see.
Visit our Privacy Policy to learn more. By continuing to use the site, you agree to this use of cookies and data.
  • In Czech Republic
  • List of Countries
  • For 7 days
  • Water Temperature
  • Weather Map
  • Weather Widgets
  • user-avatar
    Login

    Hourly Weather Vesnik

    Today, 29 May, Friday

    Time Temperature Precipitation Wind Pressure Humidity
    00:00 +12°C° 1.1 mm 2 mps 748 mmHg 90%
    01:00 +12°C° 1.1 mm 2 mps 748 mmHg 93%
    02:00 +12°C° 0 mm 2 mps 748 mmHg 96%
    03:00 +12°C° 1.2 mm 2 mps 747 mmHg 96%
    04:00 +11°C° 1.2 mm 3 mps 747 mmHg 96%
    05:00 +11°C° 1.2 mm 3 mps 746 mmHg 96%
    06:00 +11°C° 0.5 mm 4 mps 746 mmHg 96%
    07:00 +11°C° 0.5 mm 4 mps 746 mmHg 95%
    08:00 +10°C° 0.5 mm 5 mps 747 mmHg 94%
    09:00 +10°C° 0.2 mm 5 mps 746 mmHg 93%
    10:00 +12°C° 0.2 mm 5 mps 746 mmHg 93%
    11:00 +11°C° 0.2 mm 6 mps 746 mmHg 92%
    12:00 +11°C° 0.1 mm 6 mps 746 mmHg 91%
    13:00 +13°C° 0.1 mm 6 mps 746 mmHg 89%
    14:00 +13°C° 0.1 mm 6 mps 746 mmHg 88%
    15:00 +13°C° 0 mm 6 mps 746 mmHg 87%
    16:00 +13°C° 0 mm 6 mps 745 mmHg 87%
    17:00 +13°C° 0 mm 6 mps 745 mmHg 86%
    18:00 +13°C° 0 mm 6 mps 745 mmHg 86%
    19:00 +13°C° 0 mm 6 mps 745 mmHg 86%
    20:00 +13°C° 0 mm 6 mps 745 mmHg 86%
    21:00 +13°C° 0 mm 6 mps 744 mmHg 86%
    22:00 +13°C° 0 mm 6 mps 744 mmHg 86%
    23:00 +13°C° 0 mm 6 mps 744 mmHg 86%

    Tomorrow, 30 May, Saturday

    Time Temperature Precipitation Wind Pressure Humidity
    00:00 +13°C° 0 mm 6 mps 743 mmHg 86%
    01:00 +13°C° 0 mm 6 mps 743 mmHg 86%
    02:00 +13°C° 0 mm 6 mps 743 mmHg 86%
    03:00 +13°C° 0.3 mm 6 mps 743 mmHg 89%
    04:00 +13°C° 0.3 mm 6 mps 742 mmHg 92%
    05:00 +13°C° 0.3 mm 6 mps 742 mmHg 95%
    06:00 +13°C° 0.5 mm 6 mps 742 mmHg 95%
    07:00 +13°C° 0.5 mm 6 mps 742 mmHg 95%
    08:00 +13°C° 0.5 mm 6 mps 742 mmHg 95%
    09:00 +12°C° 0.1 mm 7 mps 741 mmHg 94%
    10:00 +12°C° 0.1 mm 7 mps 741 mmHg 94%
    11:00 +12°C° 0.1 mm 7 mps 741 mmHg 93%
    12:00 +14°C° 0.2 mm 7 mps 740 mmHg 93%
    13:00 +14°C° 0.2 mm 7 mps 740 mmHg 93%
    14:00 +14°C° 0.2 mm 7 mps 739 mmHg 93%
    15:00 +14°C° 1.8 mm 7 mps 739 mmHg 94%
    16:00 +15°C° 1.8 mm 8 mps 738 mmHg 94%
    17:00 +15°C° 1.8 mm 8 mps 738 mmHg 95%
    18:00 +15°C° 1.5 mm 9 mps 737 mmHg 94%
    19:00 +16°C° 1.5 mm 9 mps 737 mmHg 93%
    20:00 +16°C° 1.5 mm 10 mps 737 mmHg 92%
    21:00 +16°C° 2.4 mm 10 mps 737 mmHg 93%
    22:00 +15°C° 2.4 mm 9 mps 737 mmHg 94%
    23:00 +15°C° 2.4 mm 8 mps 738 mmHg 94%

    Day after tomorrow, 31 May, Sunday

    Time Temperature Precipitation Wind Pressure Humidity
    00:00 +15°C° 0.8 mm 7 mps 738 mmHg 95%
    01:00 +14°C° 0.8 mm 5 mps 738 mmHg 96%
    02:00 +13°C° 0.8 mm 3 mps 739 mmHg 97%
    03:00 +13°C° 1.1 mm 3 mps 739 mmHg 97%
    04:00 +13°C° 1.1 mm 3 mps 739 mmHg 97%
    05:00 +13°C° 1.1 mm 3 mps 740 mmHg 98%
    06:00 +13°C° 1.4 mm 4 mps 740 mmHg 97%
    07:00 +13°C° 1.4 mm 5 mps 741 mmHg 96%
    08:00 +13°C° 1.4 mm 5 mps 741 mmHg 96%
    09:00 +13°C° 0.6 mm 6 mps 741 mmHg 95%
    10:00 +13°C° 0.6 mm 6 mps 742 mmHg 94%
    11:00 +13°C° 0.6 mm 6 mps 742 mmHg 93%
    12:00 +14°C° 0.1 mm 7 mps 743 mmHg 90%
    13:00 +14°C° 0.1 mm 7 mps 743 mmHg 88%
    14:00 +13°C° 0.1 mm 8 mps 744 mmHg 85%
    15:00 +12°C° 0 mm 8 mps 744 mmHg 84%
    16:00 +12°C° 0 mm 7 mps 744 mmHg 83%
    17:00 +11°C° 0 mm 7 mps 745 mmHg 82%
    18:00 +11°C° 0.1 mm 6 mps 745 mmHg 82%
    19:00 +12°C° 0.1 mm 5 mps 746 mmHg 83%
    20:00 +12°C° 0.1 mm 5 mps 746 mmHg 83%
    21:00 +11°C° 0 mm 4 mps 747 mmHg 85%
    22:00 +10°C° 0 mm 4 mps 747 mmHg 86%
    23:00 +10°C° 0 mm 4 mps 748 mmHg 88%

    1 June, Monday

    Time Temperature Precipitation Wind Pressure Humidity
    00:00 +8°C° 0 mm 4 mps 748 mmHg 86%
    01:00 +8°C° 0 mm 4 mps 748 mmHg 84%
    02:00 +8°C° 0 mm 5 mps 748 mmHg 82%
    03:00 +7°C° 0 mm 5 mps 749 mmHg 81%
    04:00 +7°C° 0 mm 5 mps 749 mmHg 80%
    05:00 +6°C° 0 mm 5 mps 749 mmHg 79%
    06:00 +8°C° 0 mm 5 mps 750 mmHg 73%
    07:00 +9°C° 0 mm 6 mps 750 mmHg 68%
    08:00 +10°C° 0 mm 6 mps 750 mmHg 62%
    09:00 +11°C° 0 mm 6 mps 750 mmHg 60%
    10:00 +13°C° 0 mm 6 mps 751 mmHg 58%
    11:00 +13°C° 0 mm 6 mps 751 mmHg 56%
    12:00 +13°C° 0 mm 6 mps 750 mmHg 56%
    13:00 +13°C° 0 mm 6 mps 750 mmHg 56%
    14:00 +14°C° 0 mm 5 mps 750 mmHg 57%
    15:00 +14°C° 0 mm 5 mps 750 mmHg 58%
    16:00 +13°C° 0 mm 4 mps 750 mmHg 60%
    17:00 +13°C° 0 mm 4 mps 750 mmHg 61%
    18:00 +12°C° 0 mm 3 mps 750 mmHg 67%
    19:00 +11°C° 0 mm 3 mps 750 mmHg 72%
    20:00 +10°C° 0 mm 2 mps 750 mmHg 77%
    21:00 +9°C° 0 mm 2 mps 750 mmHg 79%
    22:00 +9°C° 0 mm 1 mps 750 mmHg 81%
    23:00 +8°C° 0 mm 1 mps 750 mmHg 83%

    2 June, Tuesday

    Time Temperature Precipitation Wind Pressure Humidity
    00:00 +8°C° 0 mm 1 mps 750 mmHg 84%
    01:00 +7°C° 0 mm 1 mps 750 mmHg 86%
    02:00 +6°C° 0 mm 1 mps 750 mmHg 87%
    03:00 +7°C° 0 mm 1 mps 750 mmHg 86%
    04:00 +7°C° 0 mm 1 mps 750 mmHg 85%
    05:00 +7°C° 0 mm 1 mps 750 mmHg 84%
    06:00 +8°C° 0 mm 2 mps 750 mmHg 76%
    07:00 +10°C° 0 mm 2 mps 750 mmHg 69%
    08:00 +12°C° 0 mm 3 mps 750 mmHg 61%
    09:00 +13°C° 0 mm 3 mps 750 mmHg 58%
    10:00 +13°C° 0 mm 3 mps 750 mmHg 55%
    11:00 +14°C° 0 mm 4 mps 750 mmHg 52%
    12:00 +14°C° 0.1 mm 4 mps 750 mmHg 53%
    13:00 +14°C° 0.1 mm 4 mps 750 mmHg 54%
    14:00 +14°C° 0.1 mm 4 mps 749 mmHg 55%
    15:00 +14°C° 0.1 mm 3 mps 749 mmHg 56%
    16:00 +14°C° 0.1 mm 3 mps 749 mmHg 58%
    17:00 +14°C° 0.1 mm 3 mps 749 mmHg 60%
    18:00 +13°C° 0 mm 3 mps 749 mmHg 66%
    19:00 +12°C° 0 mm 2 mps 748 mmHg 72%
    20:00 +11°C° 0 mm 1 mps 748 mmHg 78%
    21:00 +10°C° 0 mm 1 mps 748 mmHg 81%
    22:00 +9°C° 0 mm 1 mps 749 mmHg 83%
    23:00 +8°C° 0 mm 1 mps 749 mmHg 85%

    3 June, Wednesday

    Time Temperature Precipitation Wind Pressure Humidity
    00:00 +8°C° 0 mm 1 mps 749 mmHg 86%
    01:00 +7°C° 0 mm 1 mps 748 mmHg 87%
    02:00 +7°C° 0 mm 1 mps 748 mmHg 88%
    03:00 +7°C° 0 mm 1 mps 748 mmHg 87%
    04:00 +7°C° 0 mm 1 mps 748 mmHg 86%
    05:00 +8°C° 0 mm 1 mps 748 mmHg 85%
    06:00 +10°C° 0 mm 1 mps 748 mmHg 78%
    07:00 +12°C° 0 mm 1 mps 748 mmHg 70%
    08:00 +14°C° 0 mm 1 mps 748 mmHg 63%
    09:00 +15°C° 0 mm 1 mps 748 mmHg 57%
    10:00 +16°C° 0 mm 1 mps 748 mmHg 52%
    11:00 +18°C° 0 mm 1 mps 748 mmHg 47%
    12:00 +18°C° 0 mm 1 mps 747 mmHg 47%
    13:00 +19°C° 0 mm 1 mps 747 mmHg 47%
    14:00 +17°C° 0 mm 0 mps 747 mmHg 47%
    15:00 +16°C° 0 mm 0 mps 746 mmHg 49%
    16:00 +16°C° 0 mm 0 mps 746 mmHg 51%
    17:00 +18°C° 0 mm 1 mps 746 mmHg 54%
    18:00 +14°C° 0 mm 0 mps 746 mmHg 60%
    19:00 +13°C° 0 mm 0 mps 746 mmHg 66%
    20:00 +11°C° 0 mm 0 mps 745 mmHg 73%
    21:00 +11°C° 0 mm 1 mps 746 mmHg 74%
    22:00 +11°C° 0 mm 1 mps 746 mmHg 76%
    23:00 +10°C° 0 mm 1 mps 746 mmHg 77%
    Show more